Wind_Speed
25 25 24 24 25 25 24 22 21 21 22 22 22 22 21 21 20 20 19 18 17 16 15 15 14 14 14 13 13 12 12 12 12 11 11 11 10 9 8 8 8 8 7 7 6 6 6 6 5
26 26 26 26 27 26 24 22 22 22 23 23 24 23 23 22 21 20 20 19 19 18 17 16 16 16 15 15 14 14 13 13 14 13 13 12 11 11 10 10 9 9 8 8 7 7 7 6 6
27 27 28 28 28 26 24 22 23 24 24 25 25 25 24 23 22 22 21 21 21 20 19 19 18 18 17 16 16 15 15 15 15 15 14 14 13 12 12 11 11 11 10 9 9 8 8 7 7
28 29 30 30 29 27 26 24 24 25 25 26 26 26 25 25 24 23 23 23 22 22 21 21 20 20 19 18 18 17 17 16 17 16 16 15 15 14 14 13 12 12 11 10 10 10 9 9 8
30 31 31 31 29 28 27 26 26 26 27 27 28 27 27 26 26 25 25 24 24 24 24 23 22 21 21 20 20 20 19 18 18 18 18 17 16 16 15 14 14 13 12 12 11 10 10 10 10
31 32 32 31 30 29 28 28 27 27 28 28 29 29 28 28 27 27 26 26 26 25 25 24 24 24 23 23 22 22 21 20 20 20 20 19 18 17 17 16 15 14 14 13 13 12 12 11 11
33 33 33 33 32 31 30 30 29 29 30 30 31 31 30 29 29 28 28 28 27 27 27 26 26 26 25 25 25 24 24 23 22 22 21 21 20 18 18 17 16 15 15 14 14 13 13 13 13
35 35 35 34 33 32 31 31 31 31 31 32 32 32 31 30 30 30 30 29 29 28 28 28 28 28 27 27 27 26 26 25 25 24 23 23 22 21 20 19 18 17 16 16 15 15 15 14 14
37 37 36 34 34 33 32 32 33 33 33 32 33 32 32 32 32 31 31 30 30 30 30 30 30 30 29 29 28 28 28 28 27 26 25 25 25 23 22 21 20 19 18 18 17 17 16 16 16
39 39 36 36 36 35 34 34 34 34 34 34 34 33 33 33 33 32 32 31 30 30 30 30 31 31 31 30 29 30 30 29 29 29 28 27 27 26 25 23 22 21 20 19 19 19 18 17 17
41 40 38 38 38 37 36 36 36 36 35 35 35 34 34 34 34 34 33 32 32 31 31 31 32 32 32 32 31 30 31 31 31 30 30 29 29 28 27 26 25 24 22 21 21 20 20 19 19
43 41 41 40 39 39 39 38 37 37 37 37 37 36 35 35 35 35 34 34 33 33 32 33 33 33 33 33 33 32 31 32 32 31 31 31 31 30 30 28 27 26 25 23 23 22 22 21 21
44 42 42 42 42 41 40 40 39 38 38 37 37 37 36 36 36 36 35 34 34 34 33 33 33 33 34 35 35 34 32 32 33 32 31 32 32 32 32 30 29 28 27 26 25 23 23 22 22
44 44 44 44 43 43 42 41 41 38 39 39 39 38 38 37 37 36 36 35 34 34 34 34 35 35 35 35 36 36 34 32 32 33 32 32 32 33 32 32 31 30 29 28 27 26 25 24 24
45 46 46 45 44 44 44 44 41 40 40 40 40 39 39 38 38 37 37 36 35 35 35 35 36 36 36 36 36 37 36 34 33 34 34 33 33 33 33 32 32 31 31 30 29 28 27 26 26
47 47 47 45 45 45 46 44 41 42 41 41 40 40 39 39 38 38 38 37 37 36 36 36 36 37 37 36 37 38 37 36 35 35 35 34 34 34 34 33 32 32 32 32 31 30 29 28 28
47 47 47 46 46 46 46 44 43 43 43 42 41 40 40 39 39 39 38 38 37 37 37 37 37 37 37 36 37 38 38 37 37 36 35 35 35 35 35 34 34 34 34 33 32 31 31 30 30
46 47 47 47 47 47 46 45 44 43 43 42 41 41 40 40 39 39 39 38 38 38 37 37 37 37 37 36 37 38 38 37 37 38 37 37 36 36 36 35 35 35 35 34 33 33 32 32 31
47 47 47 47 47 47 47 46 44 44 43 42 42 41 40 40 40 39 39 38 38 38 37 37 37 37 36 36 37 37 37 36 36 37 38 37 37 37 37 36 35 36 36 36 35 35 34 33 33
48 47 46 47 47 48 47 46 45 45 43 42 42 41 40 40 39 39 39 39 38 37 37 36 36 36 36 36 37 37 37 37 36 37 37 37 38 38 38 38 36 37 37 37 36 35 34 34 34
49 48 46 47 46 47 48 47 45 45 44 43 42 42 41 40 39 39 39 39 38 38 37 37 36 37 37 37 37 38 38 37 36 37 38 38 38 39 39 39 38 38 38 37 37 36 35 36 36
49 49 48 47 46 47 48 48 45 44 43 42 41 41 41 41 40 39 39 39 38 38 38 38 36 37 38 37 37 38 38 37 37 37 38 39 39 39 39 39 38 37 38 38 38 37 37 37 37
47 48 49 48 47 48 48 49 46 44 43 41 41 41 41 41 40 39 39 38 38 38 38 37 37 38 38 37 37 38 38 38 38 38 38 39 39 40 38 39 39 38 38 38 38 37 38 38 38
44 46 47 47 47 49 46 47 47 44 42 40 40 40 40 40 40 39 39 38 37 37 36 36 37 37 38 38 37 37 37 37 38 37 38 39 39 39 38 39 39 39 39 39 38 38 38 38 39
43 43 44 46 48 49 46 47 47 44 42 40 39 39 39 39 39 39 38 37 37 36 36 36 36 36 37 38 38 38 38 38 38 37 37 37 38 38 38 38 39 39 40 39 39 39 38 39 39
42 42 43 44 46 46 47 47 45 44 43 41 39 39 39 39 38 38 38 38 37 36 35 35 36 37 37 37 38 37 38 39 39 37 37 37 37 38 38 37 38 39 39 39 40 39 38 38 39
41 41 41 41 44 45 47 46 44 43 43 41 40 39 39 39 39 38 38 38 38 37 36 36 36 37 38 38 38 38 38 39 39 39 38 37 37 39 39 38 38 38 38 38 39 39 39 39 39
39 39 40 41 40 42 46 46 44 42 41 41 40 40 39 39 39 39 38 38 38 37 36 36 37 37 38 39 38 39 38 39 39 39 39 38 37 38 38 38 39 39 39 39 39 40 41 41 40
36 38 41 41 42 41 42 44 43 41 41 40 40 40 39 39 40 40 39 38 38 38 37 37 37 37 38 38 38 39 39 39 40 40 40 39 38 37 38 38 39 39 39 39 40 40 41 42 42
35 37 38 40 41 41 41 42 42 40 40 40 40 40 39 40 40 41 40 39 39 39 38 37 37 37 38 38 39 39 38 39 39 40 40 40 39 39 39 39 39 39 39 40 40 40 41 43 44
Wind_Direction
240 240 240 241 241 241 242 241 239 238 238 238 239 240 239 239 239 241 241 240 239 238 237 235 233 230 228 226 224 225 225 224 225 225 224 225 224 222 221 221 220 219 218 219 219 218 219 219 221
241 241 241 242 243 244 243 243 241 239 239 239 239 239 238 239 239 240 241 240 239 238 238 237 235 232 230 229 227 227 228 229 228 229 228 230 230 230 228 227 225 225 224 225 225 225 226 227 229
242 242 243 244 245 245 246 243 241 240 240 239 239 239 239 239 240 240 241 241 240 239 238 237 236 235 233 232 232 233 232 232 232 231 232 233 233 234 235 233 230 230 229 228 229 230 231 231 231
244 244 245 245 246 247 246 244 242 241 241 240 240 240 240 241 241 241 241 241 240 239 238 238 237 237 236 235 236 236 236 235 235 235 234 235 236 236 236 236 234 232 230 230 231 233 234 231 233
246 246 246 246 247 247 246 245 243 243 242 241 241 241 241 241 242 241 242 242 242 241 240 239 238 238 239 240 240 239 238 237 237 238 238 237 238 237 235 234 233 231 231 232 233 234 235 234 234
248 247 247 246 247 247 245 245 244 243 242 242 242 242 242 242 242 242 242 242 242 243 242 241 240 240 241 241 241 241 240 239 239 240 239 238 238 238 235 233 233 233 233 235 237 237 237 237 237
250 249 248 247 247 247 246 245 244 243 242 242 243 243 243 243 243 243 243 244 244 244 243 242 242 242 241 241 241 241 241 240 240 241 241 239 238 237 236 234 235 236 235 236 238 239 238 240 241
250 250 248 247 247 247 246 245 245 243 243 243 243 244 244 244 244 244 244 244 245 245 245 244 244 243 242 241 241 241 242 241 240 240 240 240 239 237 236 234 235 238 238 239 238 239 240 241 242
250 250 249 248 248 248 247 246 245 244 243 244 245 245 245 244 244 244 244 244 245 246 246 246 245 244 244 242 241 241 242 243 241 240 240 241 240 238 237 237 238 240 241 241 240 240 242 242 242
250 251 250 249 249 248 247 246 245 244 244 245 245 246 245 245 244 244 245 245 245 246 247 246 245 245 245 243 242 242 243 244 242 240 240 240 239 239 239 238 240 241 242 242 242 241 242 243 242
251 252 251 249 248 248 247 246 246 245 245 245 246 246 246 246 246 245 245 245 246 246 247 247 246 245 245 243 242 243 243 244 243 240 238 238 238 238 239 240 241 241 243 244 243 243 243 244 244
251 250 250 249 248 248 247 246 245 245 245 245 246 247 247 246 246 246 246 246 246 246 246 246 245 245 244 243 243 243 244 244 243 240 237 236 236 237 238 239 240 241 243 244 244 244 244 245 245
250 249 249 249 248 247 247 246 245 245 246 245 246 247 247 247 247 247 247 247 247 246 246 246 245 245 244 243 242 242 244 243 242 239 237 236 236 237 237 238 239 240 241 243 243 242 244 246 245
250 249 248 248 247 247 247 245 245 244 246 246 246 247 247 247 247 247 247 247 247 246 246 245 245 245 245 245 244 242 242 242 240 238 238 237 237 237 237 238 238 239 241 243 244 244 244 245 245
250 248 247 247 247 247 247 245 245 245 246 246 247 247 247 246 246 246 246 247 247 247 246 245 245 245 246 246 244 242 241 240 239 238 238 238 237 238 238 239 238 238 239 241 243 244 245 245 246
250 248 247 246 247 247 247 246 244 245 245 246 246 246 246 246 247 246 246 247 247 246 245 245 245 245 246 247 245 243 240 239 238 238 237 238 238 238 239 239 239 239 240 241 242 244 245 246 247
248 248 248 247 246 246 246 245 243 244 245 245 245 245 245 246 247 247 247 247 247 245 244 244 244 244 245 245 244 243 240 238 238 238 238 238 238 239 240 240 240 241 241 242 243 244 244 244 246
249 249 247 246 246 245 245 245 244 244 244 244 244 244 244 245 246 247 246 246 246 245 244 244 244 244 244 244 243 241 239 239 238 238 239 239 239 239 240 240 240 241 242 242 243 244 244 244 246
247 247 247 246 246 245 245 244 243 243 243 243 243 243 243 244 245 245 246 246 246 245 244 243 243 243 243 243 241 240 238 238 239 239 239 240 241 240 239 239 240 241 242 242 243 244 245 246 246
244 244 245 245 245 245 244 243 242 242 242 241 241 242 242 243 243 244 245 246 245 244 243 242 242 241 240 239 239 239 239 239 240 240 240 241 240 240 240 239 240 241 241 242 243 244 246 247 247
242 243 243 244 245 245 244 243 241 240 240 240 240 240 241 242 243 244 245 245 244 243 243 242 241 239 238 239 240 239 239 239 240 240 240 240 240 240 240 240 240 242 242 242 242 243 245 248 247
241 241 242 242 243 244 243 243 239 239 239 239 239 240 240 241 242 244 244 243 242 242 242 240 239 239 238 238 238 238 239 239 241 241 240 240 240 240 241 239 241 241 241 242 243 244 246 249 249
241 240 241 242 243 243 242 243 239 238 238 238 238 239 240 240 241 242 243 242 241 241 240 239 238 238 237 237 237 237 238 240 241 240 241 240 239 240 241 241 241 241 241 242 243 245 247 250 250
240 240 241 240 241 242 240 242 240 237 237 237 238 238 239 239 240 241 241 241 241 240 239 239 238 237 237 237 236 238 238 239 240 241 242 241 240 242 243 241 241 241 241 242 244 246 248 250 250
237 237 238 238 238 241 240 242 241 237 236 236 237 237 237 238 240 241 239 239 240 240 239 239 238 237 235 235 236 239 238 239 239 240 241 241 241 242 243 241 241 241 242 243 244 246 248 250 251
236 235 235 238 240 241 241 242 242 239 237 236 236 236 236 238 239 239 239 239 239 239 238 238 237 237 236 237 237 238 238 238 238 239 240 242 243 243 242 241 241 241 242 243 245 246 248 250 252
233 233 234 238 241 242 242 242 242 240 239 237 236 236 237 238 239 239 239 239 239 238 238 238 237 238 237 238 239 237 237 237 238 239 241 242 243 244 242 242 244 243 243 244 244 246 247 251 251
234 233 231 233 238 241 242 242 242 241 240 238 237 236 237 238 238 237 238 238 239 239 239 239 239 239 237 238 238 237 236 237 237 238 239 241 243 243 243 244 245 245 245 246 246 246 247 249 250
233 232 231 232 235 238 240 241 241 241 240 239 238 237 237 238 237 236 237 238 238 239 240 240 240 238 237 236 236 236 237 238 239 239 240 242 243 243 244 244 245 246 246 246 247 248 249 251 252
234 233 230 230 234 236 238 239 240 240 239 239 238 237 237 236 236 236 237 238 238 239 240 240 240 238 236 236 235 235 237 239 240 241 242 242 243 244 245 244 246 247 248 248 249 251 253 254 254
Height
5823 5824 5826 5827 5829 5830 5831 5834 5835 5837 5837 5838 5839 5840 5842 5844 5846 5848 5848 5848 5849 5850 5851 5852 5853 5854 5855 5856 5857 5858 5859 5860 5861 5861 5862 5863 5864 5865 5865 5866 5866 5867 5868 5868 5869 5869 5870 5870 5871
5818 5820 5822 5822 5823 5825 5827 5830 5831 5832 5833 5833 5834 5836 5837 5839 5840 5842 5843 5844 5845 5847 5848 5849 5850 5851 5852 5853 5854 5855 5856 5857 5858 5859 5860 5861 5862 5863 5863 5864 5865 5866 5866 5867 5867 5868 5869 5869 5870
5813 5814 5816 5817 5818 5820 5823 5825 5826 5826 5827 5828 5829 5831 5832 5834 5836 5837 5838 5840 5841 5843 5844 5845 5847 5848 5849 5850 5851 5852 5853 5855 5856 5857 5858 5859 5860 5861 5861 5862 5863 5864 5865 5865 5866 5867 5867 5868 5869
5807 5809 5810 5812 5813 5816 5817 5819 5820 5821 5822 5823 5824 5826 5828 5830 5831 5833 5834 5835 5837 5839 5840 5841 5843 5844 5846 5847 5848 5849 5850 5852 5853 5854 5855 5856 5857 5858 5859 5860 5861 5862 5863 5863 5864 5865 5866 5866 5867
5801 5802 5804 5805 5807 5810 5811 5813 5814 5815 5816 5818 5819 5820 5822 5824 5826 5827 5829 5830 5832 5834 5836 5837 5839 5840 5842 5843 5844 5846 5847 5848 5849 5851 5852 5853 5854 5855 5856 5857 5858 5859 5861 5861 5862 5863 5864 5865 5865
5795 5796 5798 5799 5802 5803 5805 5806 5808 5809 5811 5812 5813 5815 5817 5819 5820 5822 5823 5825 5827 5829 5830 5832 5834 5836 5837 5839 5840 5842 5843 5844 5845 5847 5848 5850 5851 5852 5853 5854 5855 5857 5858 5859 5860 5861 5862 5862 5863
5788 5789 5791 5793 5795 5797 5799 5800 5801 5803 5804 5806 5807 5809 5811 5813 5814 5816 5818 5819 5821 5823 5825 5827 5829 5830 5832 5834 5835 5837 5838 5840 5841 5843 5844 5846 5847 5849 5850 5851 5852 5854 5855 5856 5857 5858 5859 5860 5861
5780 5782 5783 5786 5788 5790 5792 5793 5795 5796 5798 5799 5801 5803 5805 5807 5808 5810 5811 5813 5815 5817 5819 5821 5823 5824 5826 5828 5830 5831 5833 5835 5836 5838 5840 5841 5843 5845 5846 5848 5849 5850 5852 5853 5854 5855 5856 5857 5858
5771 5774 5776 5779 5780 5783 5784 5786 5787 5789 5790 5792 5794 5796 5798 5799 5801 5803 5805 5807 5809 5811 5812 5814 5816 5818 5820 5821 5823 5825 5827 5829 5831 5833 5835 5836 5838 5840 5842 5844 5845 5847 5848 5849 5851 5852 5853 5854 5855
5762 5765 5769 5771 5772 5774 5776 5777 5779 5781 5783 5785 5787 5788 5790 5791 5793 5796 5798 5800 5802 5804 5805 5807 5809 5811 5813 5815 5817 5819 5821 5823 5825 5827 5829 5831 5833 5835 5838 5839 5841 5843 5844 5845 5847 5848 5849 5850 5851
5753 5757 5760 5761 5763 5765 5767 5769 5770 5773 5775 5777 5779 5780 5782 5784 5786 5788 5791 5793 5795 5796 5798 5800 5802 5804 5806 5808 5810 5812 5814 5816 5818 5820 5823 5825 5827 5830 5832 5834 5836 5838 5840 5841 5842 5844 5845 5846 5847
5743 5747 5749 5751 5753 5755 5757 5759 5762 5764 5767 5768 5770 5772 5774 5776 5778 5780 5783 5785 5787 5789 5790 5792 5794 5796 5798 5800 5802 5805 5806 5808 5811 5813 5816 5818 5821 5824 5826 5829 5831 5833 5835 5836 5838 5839 5841 5842 5843
5732 5736 5738 5740 5742 5745 5747 5749 5752 5756 5757 5759 5761 5764 5766 5768 5770 5772 5774 5777 5779 5781 5782 5784 5786 5788 5790 5792 5795 5797 5799 5801 5803 5806 5809 5812 5814 5817 5820 5822 5825 5827 5829 5831 5833 5834 5836 5837 5838
5722 5724 5726 5729 5731 5734 5737 5739 5742 5747 5748 5750 5752 5755 5757 5759 5761 5763 5766 5768 5770 5773 5774 5776 5778 5780 5782 5784 5787 5789 5792 5794 5796 5799 5802 5805 5808 5810 5813 5816 5819 5821 5823 5826 5828 5829 5831 5832 5834
5709 5712 5714 5718 5721 5723 5726 5729 5735 5737 5738 5740 5743 5745 5747 5750 5752 5755 5757 5759 5762 5764 5766 5768 5770 5772 5774 5776 5779 5781 5784 5786 5789 5792 5795 5798 5801 5804 5806 5809 5812 5815 5817 5819 5822 5823 5825 5827 5829
5696 5699 5703 5708 5710 5712 5715 5720 5726 5725 5728 5730 5733 5735 5738 5740 5743 5746 5748 5750 5753 5755 5757 5759 5761 5764 5766 5768 5770 5772 5775 5779 5782 5785 5788 5791 5794 5797 5799 5802 5805 5808 5810 5813 5815 5818 5819 5821 5823
5683 5687 5692 5696 5698 5700 5703 5709 5713 5714 5717 5720 5723 5725 5728 5731 5734 5736 5739 5741 5743 5746 5748 5751 5753 5755 5757 5759 5761 5764 5767 5771 5774 5777 5781 5784 5787 5790 5792 5795 5798 5801 5804 5806 5809 5811 5813 5815 5817
5673 5676 5680 5683 5685 5689 5692 5698 5702 5704 5707 5710 5713 5716 5718 5722 5724 5726 5729 5732 5734 5737 5739 5742 5744 5747 5749 5751 5753 5756 5759 5763 5766 5770 5773 5776 5779 5782 5785 5788 5791 5794 5796 5799 5802 5804 5807 5809 5811
5659 5662 5666 5670 5673 5677 5680 5685 5689 5692 5696 5699 5702 5706 5709 5712 5715 5717 5720 5722 5725 5728 5731 5733 5736 5738 5741 5744 5746 5749 5752 5755 5759 5762 5766 5769 5771 5774 5777 5780 5783 5786 5789 5792 5795 5797 5799 5802 5804
5645 5649 5654 5657 5661 5664 5668 5672 5678 5681 5686 5689 5692 5696 5699 5702 5705 5708 5711 5713 5716 5719 5722 5724 5727 5730 5733 5736 5739 5742 5745 5748 5751 5754 5757 5760 5763 5766 5769 5772 5775 5778 5781 5784 5787 5790 5792 5795 5797
5631 5637 5642 5645 5648 5651 5655 5660 5666 5671 5674 5678 5682 5686 5689 5693 5696 5699 5701 5704 5707 5710 5713 5716 5719 5721 5724 5727 5730 5734 5737 5740 5743 5746 5749 5752 5755 5758 5761 5764 5767 5770 5773 5776 5779 5782 5785 5787 5789
5619 5625 5628 5632 5635 5638 5643 5647 5655 5660 5664 5668 5673 5676 5680 5683 5687 5689 5692 5695 5698 5701 5704 5707 5710 5713 5716 5719 5722 5726 5730 5733 5736 5738 5741 5743 5746 5749 5752 5755 5758 5761 5765 5768 5771 5774 5777 5778 5780
5607 5612 5616 5620 5623 5626 5631 5635 5643 5648 5654 5659 5664 5667 5671 5674 5677 5680 5683 5686 5689 5692 5695 5698 5701 5705 5708 5711 5714 5718 5721 5725 5727 5730 5733 5735 5738 5741 5744 5747 5750 5753 5756 5760 5763 5766 5768 5770 5772
5594 5599 5603 5607 5609 5613 5621 5624 5631 5638 5644 5650 5654 5657 5660 5664 5667 5671 5674 5677 5680 5683 5687 5690 5693 5696 5700 5703 5706 5710 5713 5717 5719 5722 5725 5728 5730 5734 5736 5738 5742 5745 5748 5751 5754 5757 5760 5762 5764
5582 5588 5592 5594 5597 5603 5611 5612 5620 5628 5634 5639 5643 5647 5651 5654 5658 5661 5665 5668 5672 5675 5678 5682 5685 5688 5692 5695 5698 5702 5705 5708 5711 5714 5717 5720 5723 5726 5728 5731 5734 5736 5739 5742 5745 5748 5751 5753 5756
5572 5577 5583 5586 5589 5595 5598 5602 5611 5618 5623 5628 5633 5637 5641 5645 5649 5652 5656 5659 5663 5667 5670 5674 5677 5680 5684 5687 5691 5693 5697 5700 5703 5706 5709 5712 5715 5718 5720 5723 5726 5728 5731 5733 5736 5739 5742 5745 5748
5562 5566 5573 5577 5579 5584 5587 5594 5601 5607 5612 5618 5623 5627 5631 5635 5639 5643 5647 5650 5654 5658 5662 5666 5669 5672 5676 5679 5682 5686 5689 5692 5695 5698 5701 5704 5707 5710 5713 5715 5718 5721 5723 5725 5728 5731 5734 5737 5740
5552 5558 5562 5566 5570 5574 5578 5584 5591 5597 5602 5608 5613 5617 5621 5625 5629 5633 5637 5641 5646 5650 5654 5657 5661 5664 5667 5671 5674 5677 5681 5684 5687 5690 5693 5697 5700 5702 5705 5708 5711 5713 5716 5718 5721 5724 5726 5729 5731
5543 5548 5552 5556 5560 5566 5570 5577 5582 5587 5592 5597 5602 5607 5611 5615 5619 5623 5628 5632 5636 5640 5644 5648 5652 5655 5658 5662 5665 5669 5672 5676 5679 5682 5685 5689 5692 5695 5698 5700 5703 5706 5708 5711 5714 5716 5719 5720 5722
5533 5538 5543 5548 5551 5556 5562 5569 5571 5577 5582 5587 5591 5596 5601 5605 5609 5614 5618 5622 5626 5631 5635 5639 5643 5646 5650 5653 5657 5661 5664 5667 5671 5674 5677 5681 5684 5686 5689 5692 5695 5698 5700 5703 5705 5708 5710 5711 5713